Kineis-3C

operational
NORAD ID: 61220 Int'l Des: 2024-172 Owner: KINEIS Country: F
LEOCIRCULARRETROGRADESSO

关于 Kineis-3C

正在加载描述...

实时位置

正在加载3D地球...

即将过境

高度历史

Altitude vs Time

uPlot chart will show altitude changes over time

两行轨道根数

1 61220U 24172A 26063.20803304 .00003426 00000-0 55000-3 0 9992
2 61220 98.0303 154.2759 0003506 111.4414 248.7168 14.72284255 77627
Epoch: Mar 4, 2026 • Age: 18 hours

当前状态

高度 659.7 km
速度 7.53 km/s
星下点 -9.40°S, 83.65°E
发射日期 Sep 20, 2024
运行时间 1.4 years
类型 other

技术详情

分类 Payload
质量 28.00 kg
干质量 28.00 kg
总质量 28.00 kg
长度 0.40 m
直径 0.20 m
跨度 1.60 m
形状 Box+ 2 pan + ant
制造商 KINEIS
平台类型 Cubesat 16U
阶段状态 In Orbit
所有者/国家 KINEIS/F

大型星座

Loading constellations...